Time,TemperatureF,DewpointF,PressureIn,WindDirection,WindDirectionDegrees,WindSpeedMPH,WindSpeedGustMPH,Humidity,HourlyPrecipIn,Conditions,Clouds,dailyrainin,SoftwareType,DateUTC
2013-01-11 00:02:00,20.0,-99.9,-100.00,East,92,0.0,1.0,-999,-99.99,,,-99.99,,2013-01-11 08:02:00,
2013-01-11 00:12:00,20.0,-99.9,-100.00,East,92,0.0,1.0,-999,-99.99,,,-99.99,,2013-01-11 08:12:00,
2013-01-11 01:03:00,19.0,-99.9,-100.00,West,268,0.0,1.0,-999,-99.99,,,-99.99,,2013-01-11 09:03:00,
2013-01-11 01:10:00,17.0,-99.9,-100.00,ENE,78,0.0,1.0,-999,-99.99,,,-99.99,,2013-01-11 09:10:00,
2013-01-11 01:12:00,19.0,-99.9,-100.00,West,268,0.0,1.0,-999,-99.99,,,-99.99,,2013-01-11 09:12:00,
2013-01-11 02:02:00,17.0,-99.9,-100.00,ENE,78,0.0,1.0,-999,-99.99,,,-99.99,,2013-01-11 10:02:00,
2013-01-11 03:03:00,16.0,-99.9,-100.00,West,278,0.0,1.0,-999,-99.99,,,-99.99,,2013-01-11 11:03:00,
2013-01-11 03:12:00,16.0,-99.9,-100.00,West,278,0.0,1.0,-999,-99.99,,,-99.99,,2013-01-11 11:12:00,
2013-01-11 04:00:00,14.0,-99.9,-100.00,NNW,330,0.0,1.0,-999,-99.99,,,-99.99,,2013-01-11 12:00:00,
2013-01-11 04:03:00,15.0,-99.9,-100.00,North,1,0.0,1.0,-999,-99.99,,,-99.99,,2013-01-11 12:03:00,
2013-01-11 10:10:00,19.0,-99.9,-100.00,SE,128,0.0,2.0,-999,-99.99,,,-99.99,,2013-01-11 18:10:00,
2013-01-11 11:03:00,19.0,-99.9,-100.00,SE,128,0.0,2.0,-999,-99.99,,,-99.99,,2013-01-11 19:03:00,
2013-01-11 12:03:00,20.0,-99.9,-100.00,SSE,151,0.0,2.0,-999,-99.99,,,-99.99,,2013-01-11 20:03:00,
2013-01-11 13:03:00,22.0,-99.9,-100.00,East,79,0.0,1.0,-999,-99.99,,,-99.99,,2013-01-11 21:03:00,
2013-01-11 13:13:00,22.0,-99.9,-100.00,East,79,0.0,1.0,-999,-99.99,,,-99.99,,2013-01-11 21:13:00,
2013-01-11 14:03:00,22.0,-99.9,-100.00,West,278,0.0,1.0,-999,-99.99,,,-99.99,,2013-01-11 22:03:00,
2013-01-11 15:03:00,21.0,-99.9,-100.00,ENE,76,0.0,1.0,-999,-99.99,,,-99.99,,2013-01-11 23:03:00,
2013-01-11 15:13:00,21.0,-99.9,-100.00,ENE,76,0.0,1.0,-999,-99.99,,,-99.99,,2013-01-11 23:13:00,
2013-01-11 16:03:00,20.0,-99.9,-100.00,East,93,0.0,1.0,-999,-99.99,,,-99.99,,2013-01-12 00:03:00,
2013-01-11 17:03:00,19.0,-99.9,-100.00,SE,141,0.0,1.0,-999,-99.99,,,-99.99,,2013-01-12 01:03:00,
2013-01-11 17:13:00,19.0,-99.9,-100.00,SE,141,0.0,1.0,-999,-99.99,,,-99.99,,2013-01-12 01:13:00,
2013-01-11 18:03:00,17.0,-99.9,-100.00,East,97,0.0,1.0,-999,-99.99,,,-99.99,,2013-01-12 02:03:00,
2013-01-11 19:03:00,15.0,-99.9,-100.00,ESE,123,0.0,1.0,-999,-99.99,,,-99.99,,2013-01-12 03:03:00,
2013-01-11 19:12:00,15.0,-99.9,-100.00,ESE,123,0.0,1.0,-999,-99.99,,,-99.99,,2013-01-12 03:12:00,
2013-01-11 20:03:00,14.0,-99.9,-100.00,SE,133,0.0,1.0,-999,-99.99,,,-99.99,,2013-01-12 04:03:00,
2013-01-11 20:10:00,13.0,-99.9,-100.00,ESE,117,0.0,1.0,-999,-99.99,,,-99.99,,2013-01-12 04:10:00,
2013-01-11 21:04:00,13.0,-99.9,-100.00,ESE,117,0.0,1.0,-999,-99.99,,,-99.99,,2013-01-12 05:04:00,
2013-01-11 22:03:00,12.0,-99.9,-100.00,East,99,0.0,1.0,-999,-99.99,,,-99.99,,2013-01-12 06:03:00,
2013-01-11 22:10:00,11.0,-99.9,-100.00,ESE,104,0.0,1.0,-999,-99.99,,,-99.99,,2013-01-12 06:10:00,
2013-01-11 23:00:00,10.0,-99.9,-100.00,East,90,0.0,1.0,-999,-99.99,,,-99.99,,2013-01-12 07:00:00,
2013-01-11 23:02:00,11.0,-99.9,-100.00,ESE,104,0.0,1.0,-999,-99.99,,,-99.99,,2013-01-12 07:02:00,